Simultaneous Nadir Overpasses (SNOs) Predictions

Prediction of SNOs between TERRA and METOP-C Satellite Orbit:

Table of predicted SNOs for the next 14.0 days since TLE Epoch: 6/1/2024
Index Date (TERRA) Time (TERRA) Lat,Lon (TERRA) SZA (TERRA ) Date (METOP-C) Time (METOP-C) Lat,Lon (METOP-C) SZA (METOP-C ) Distance(km) Time Diff (sec)
1 06/01/2024 14:30:41 77.94, -29.52 55.85 06/01/2024 14:30:35 77.94, -29.57 55.85 1.41 6
2 06/01/2024 15:19:52 -78.44, 140.46 123.57 06/01/2024 15:21:03 -78.45, 140.56 123.55 2.45 71
3 06/04/2024 05:01:28 77.74, 111.90 55.30 06/04/2024 05:00:58 77.73, 111.85 55.29 1.44 30
4 06/04/2024 05:50:39 -78.25, -78.16 124.12 06/04/2024 05:51:26 -78.26, -78.07 124.09 2.38 47
5 06/06/2024 19:32:14 77.60,-106.38 54.87 06/06/2024 19:31:20 77.60,-106.34 54.87 0.96 54
6 06/06/2024 20:21:28 -77.99, 62.93 124.69 06/06/2024 20:21:52 -77.99, 62.87 124.70 1.51 24
7 06/09/2024 10:05:51 68.45, 16.26 45.95 06/09/2024 10:04:38 68.75, 14.47 46.47 80.23 73
8 06/09/2024 10:52:16 -77.75,-155.85 125.20 06/09/2024 10:52:17 -77.74,-155.96 125.22 2.83 1
9 06/12/2024 01:23:02 -77.56, -14.32 125.60 06/12/2024 01:22:40 -77.56, -14.38 125.60 1.60 22
10 06/12/2024 02:12:09 78.12, 155.76 55.04 06/12/2024 02:13:06 78.13, 155.83 55.06 1.75 57
11 06/14/2024 15:53:46 -77.44, 127.50 125.87 06/14/2024 15:53:01 -77.45, 127.57 125.86 2.15 45



Historial Predications of SNOs between TERRA and METOP-C
